COSMOS 2251 DEB, 33973

Orbit data source: Space-Track

COSMOS 2251 DEB, 33973 is space debris in LEO originally from a launch on Wed, 16 Jun 1993 UTC launched from the Plesetsk Missile And Space Complex (PKMTR). The debris from Iridium 33, an American commercial communications satellite, has been tracked extensively since its accidental collision with the defunct Russian satellite Cosmos 2251 in 2009. This event, occurring at high speed in low Earth orbit (LEO), generated thousands of pieces of space debris, significantly increasing the risk of further collisions. The Iridium 33 debris cloud has impacted space traffic management and orbital debris mitigation strategies, making it a subject of ongoing study in space situational awareness.

Loading next visibility...
Identifier
33973, 1993-036FG
Orbit
LEO
Country
Flag of CISCIS
Related business
Manufacturer
Unknown
Mission
Spacecraft
Bus & Motor
Unknown
Mass
Unknown
Launch date (UTC)
1993-06-16 (33 years ago)
Launch vehicle
Unknown
Launch site
Plesetsk Missile And Space Complex (PKMTR)
Object type
Payload
Rocket body
Debris
Shape & HBR
Unknown shape, 0.1 m
Radar Cross Section
Small (<0.1 m²)

Expand to show TLE details & history
Last TLE update: 15 hours ago

TLE from 15 hours ago
0 COSMOS 2251 DEB
1 33973U 93036FG  26071.09230235  .00000400  00000-0  11974-3 0  9995
2 33973  74.0077 296.0476 0045022  93.4415  28.9352 14.45494174898912
Epoch: 2026-03-12T02:12Z
TLE epoch observation values (Epoch: 2026-03-12T02:12:54.923Z)
Latitude
54.16648°
Longitude
-110.17944°
Altitude
720.95 km
Speed
7.515 km/s
True Right ascension
06h 11m 11s
True Declination
54° 00' 08"
Sunlit
Object was in daylight at epoch
Visualization orbit readout
Latitude
Unknown
Longitude
Unknown
Altitude
Unknown
Speed
Unknown
Apparent Right ascension
Unknown
Apparent Declination
Unknown
Sunlit
N/A
Visualization observer readout
Local Sidereal Time
21:09:50
Azimuth
Unknown
Elevation
Unknown
Doppler factor
Unknown
Orbital elements
Apogee altitude
770.057 km
Perigee altitude
705.981 km
Semi-major axis
7,116.156 km
Eccentricity
0.0045
Inclination
74.0077°
RAAN
296.0476°
Arg. of periapsis
93.4415°
True anomaly
29.18604°
Mean anomaly
28.9352°
Eccentric anomaly
29.0605°
Mean motion
3.61555 °/min
Orbital period
99.57 mins
BSTAR
0.00011974
Loading maneuver chart data...
Computing Atmospheric mass density...

Documentation

Showing up to 5 results
|